Regional Weather Roundup
Issued by NWS Newport/Morehead, NC

Current Version | Previous Version | Graphics & Text | Print | Product List | Glossary Off
Versions: 1 2 3 4 5 6 7 8 9 10 11 12 13 14 15 16 17 18 19 20 21 22 23 24 25 26 27 28 29 30 31 32 33 34 35 36 37 38 39 40 41 42 43 44 45 46 47 48 49 50

000
ASUS42 KMHX 232013
RWRMHX
WEATHER ROUNDUP FOR EASTERN NORTH CAROLINA
NATIONAL WEATHER SERVICE NEWPORT/MOREHEAD CITY NC
300 PM EST MON JAN 23 2017

NOTE: "FAIR" INDICATES FEW OR NO CLOUDS BELOW 12,000 FEET
WITH NO SIGNIFICANT WEATHER AND/OR OBSTRUCTIONS TO VISIBILITY

NCZ015>017-031-032-045>047-102-103-232100-
NORTH COAST

CITY           SKY/WX    TMP DP  RH WIND       PRES   REMARKS
EDENTON        MOSUNNY   65  48  53 CALM      29.26R
ELIZABETH CITY CLOUDY    64  50  60 SW7       29.24S
KITTY HAWK     NOT AVBL
MANTEO         RAIN      57  50  77 CALM      29.26S

$$

NCZ045>047-081-094-103-104-232100-
CENTRAL COAST

CITY           SKY/WX    TMP DP  RH WIND       PRES   REMARKS
FRISCO         CLOUDY    59  56  89 SE5       29.26S FOG

$$

NCZ095-097-098-100-101-232100-
SOUTHERN COAST

CITY           SKY/WX    TMP DP  RH WIND       PRES   REMARKS
BEAUFORT       PTSUNNY   62  50  64 CALM      29.23F
CEDAR ISLAND   NOT AVBL
JACKSONVILLE   PTSUNNY   62  50  64 SE9       29.22S
PINEY ISLAND   MOCLDY   N/A N/A N/A VRB5      29.23F
WILMINGTON     LGT RAIN  59  47  64 S8        29.22S


$$

NCZ011>013-027>030-043-044-078>080-089-090>093-098-232100-
COASTAL PLAIN

CITY           SKY/WX    TMP DP  RH WIND       PRES   REMARKS
AHOSKIE          N/A     63  46  55 CALM      29.25R
CLINTON        CLOUDY    62  51  67 NW7       29.23S
ELIZABETHTOWN  MOSUNNY   60  49  65 W8        29.23R
GOLDSBORO      PTSUNNY   62  47  57 W7        29.22S
GREENVILLE     MOSUNNY   64  46  52 CALM      29.29S
HAVELOCK       PTSUNNY   64  48  56 SW7       29.23F
KENANSVILLE    CLOUDY    63  48  59 W3        29.22F
KINSTON        CLOUDY    64  46  52 W5        29.24S
NEW BERN       PTSUNNY   66  48  52 VRB3      29.23F
RICHLANDS      TSTM      61  53  75 SE5       29.22F
ROCKY MOUNT    PTSUNNY   63  47  55 VRB7      29.24S
WASHINGTON     PTSUNNY   64  46  51 N5          N/A
WHITEVILLE     LGT RAIN  56  49  79 SW5       29.23S

$$

AMZ130-135-150-152-154-156-158-170-250-252-270-ANZ085-086-088-633-658-670-232100-
MARINE OBSERVATIONS

STATION/POSITION TIME  TEMP    WIND        PRES    WAVE   SWELL
                       AIR SEA DIR/SP/G            HT/PER HT/PER
                 (UTC) (F)     (DEG/KT/KT) (MB)    (FT/S) (FT/S)
CHESAPEAKE LIGHT NOT AVBL
64 E VA BEACH    1950   55 54  200/ 10/ 16  990.0   10/10  10/10
DUCK             1942   58 47  190/  5/  7  989.9
2 E DUCK         1930      47                N/A     7/12   3/12
OREGON INLET     1942   52 51  190/  9/ 12  990.7
13E OREGON INLT  NOT AVBL
HATTERAS CG      1942   56 56  300/  3/  5  989.8
DIAMOND BUOY     1950   62 76  190/  6/ 10  990.2    7/ 7   7/ 7
CAPE LOOKOUT     1900   59     330/  5/  6  989.6
BEAUFORT LAB     1942   60 52   30/  1/  1  988.9
30 SE NEW RVR IN 1908   61 68   10/  6/ 14  989.8
30 SE NEW RVR IN 1943      68                N/A     8/11   5/11
27 SE WRIGHTSVLE 1908   62 68  280/  6/ 10  987.6
5 SE WRIGHTSVLE  1908   56 54  190/  4/  8  989.4
225 S CAPE HAT   1950   69 72  230/ 19/ 21  991.9   13/10  10/10
41 SE CHARLESTON 1850   59 68  270/ 25/ 31  989.8    9/ 7   3/11

$$



USA.gov is the U.S. government's official web portal to all federal, state and local government web resources and services.